Tracking 29042 objects as of 20-Jun-2024
HD Live streaming from Space Station
objects crossing your sky now

ATLAS 5 CENTAUR DEB

Track ATLAS 5 CENTAUR DEB now!


NORAD ID: 52829
Int'l Code: 2014-055DK
Perigee: 8,810.4 km
Apogee: 36,348.1 km
Inclination: 20.3 °
Period: 817.0 minutes
Semi major axis: 28950 km
RCS: Unknown
Launch date: September 17, 2014
Source: United States (US)
Launch site: AIR FORCE EASTERN TEST RANGE (AFETR)

Note: This is SATELLITE DEBRIS
Your satellite tracking list
Your tracking list is empty




NASA's NSSDC Master Catalog

Two Line Element Set (TLE):
1 52829U 14055DM  24171.28624743 -.00000055  00000-0  00000-0 0  9993
2 52829  20.3195 244.0751 4756037 350.7080   3.0720  1.76247988 13486
Source of the keplerian elements: AFSPC